1513108800.55,15540,7.0,72862.5,-5.75,-7.05,-6.93,0,*5C
1513108801.8,15541,7.06,72864.3,-5.75,-6.97,-6.93,0,*57
1513108803.03,15542,7.0,72860.3,-5.75,-7.11,-6.97,0,*5F
1513108804.28,15543,7.06,72862.8,-5.75,-6.97,-6.93,0,*55
1513108805.5,15544,7.0,72862.5,-5.75,-7.19,-6.97,0,*51
1513108806.72,15545,7.06,72864.0,-5.75,-7.19,-7.05,0,*5A
1513108807.95,15546,7.0,72860.8,-5.75,-7.31,-7.11,0,*56
1513108809.17,15547,7.06,72864.0,-5.75,-7.31,-7.11,0,*57
1513108810.42,15548,7.06,72866.5,-5.77,-7.27,-7.23,0,*5C
1513108811.64,15549,7.06,72862.0,-5.75,-7.23,-7.05,0,*5F
1513108812.85,15550,7.06,72852.8,-5.75,-7.23,-7.05,0,*57
1513108814.1,15551,7.06,72854.3,-5.77,-7.23,-7.01,0,*50
1513108815.35,15552,7.06,72834.5,-5.77,-7.35,-7.15,0,*51
1513108816.6,15553,7.06,72832.0,-5.77,-7.27,-7.15,0,*53
1513108817.84,15554,7.06,72838.3,-5.77,-7.27,-7.15,0,*54
1513108819.09,15555,7.06,72842.5,-5.77,-7.15,-7.01,0,*51
1513108820.34,15556,7.06,72842.5,-5.77,-7.15,-7.01,0,*52
1513108821.56,15557,7.0,72842.0,-5.75,-7.11,-6.97,0,*5B
1513108822.79,15558,7.0,72842.5,-5.75,-7.19,-6.97,0,*5C
1513108824.04,15559,7.06,72848.0,-5.77,-7.27,-7.11,0,*5D
1513108825.29,15560,7.06,72848.5,-5.77,-7.27,-7.11,0,*57
1513108826.54,15561,7.06,72848.3,-5.77,-7.35,-7.11,0,*55
1513108827.76,15562,7.0,72846.3,-5.75,-7.19,-7.05,0,*5F
1513108829.0,15563,7.06,72852.3,-5.77,-7.23,-7.05,0,*55
1513108830.25,15564,7.06,72854.5,-5.77,-7.35,-7.15,0,*54
1513108831.5,15565,7.06,72852.8,-5.77,-7.35,-7.23,0,*50
1513108832.75,15566,7.06,72856.5,-5.77,-7.35,-7.15,0,*56
1513108833.99,15567,7.06,72858.0,-5.77,-7.27,-7.23,0,*51
1513108835.24,15568,7.06,72858.0,-5.77,-7.27,-7.15,0,*5B
1513108836.48,15569,7.06,72854.8,-5.77,-7.27,-7.15,0,*5A
1513108837.71,15570,7.06,72852.3,-5.77,-7.23,-7.15,0,*56
1513108838.96,15571,7.06,72854.3,-5.77,-7.35,-7.23,0,*55
1513108840.21,15572,7.0,72850.5,-5.79,-7.27,-7.27,0,*5F
1513108841.43,15573,7.06,72852.3,-5.77,-7.15,-7.15,0,*50
1513108842.66,15574,7.06,72856.3,-5.77,-7.15,-7.11,0,*53
1513108843.9,15575,7.06,72852.0,-5.77,-7.15,-7.01,0,*53
1513108845.13,15576,7.0,72852.5,-5.79,-7.23,-7.01,0,*5B
1513108846.35,15577,7.06,72854.5,-5.79,-7.15,-7.01,0,*5F
1513108847.58,15578,7.0,72850.3,-5.77,-7.15,-7.11,0,*5F
1513108848.78,15579,7.06,72852.3,-5.79,-7.15,-7.11,0,*50
1513108849.99,15580,7.06,72854.8,-5.79,-7.15,-7.11,0,*56
1513108851.24,15581,7.0,72854.5,-5.77,-7.15,-7.01,0,*58
1513108852.44,15582,7.06,72852.5,-5.79,-7.15,-6.89,0,*54
1513108853.66,15583,7.06,72854.0,-5.79,-7.23,-7.01,0,*51
1513108854.88,15584,7.06,72856.5,-5.79,-7.11,-7.01,0,*57
1513108856.14,15585,7.06,72856.5,-5.77,-7.11,-7.01,0,*58
1513108857.38,15586,7.06,72854.3,-5.77,-7.01,-6.85,0,*57
1513108858.63,15587,7.06,72852.3,-5.77,-7.01,-6.89,0,*5A
1513108859.85,15588,7.0,72852.5,-5.79,-7.01,-6.89,0,*5B
1513108861.12,15589,7.06,72854.8,-5.77,-7.01,-6.97,0,*5B
1513108862.34,15590,7.06,72852.5,-5.79,-7.01,-6.89,0,*52
1513108863.61,15591,7.06,72858.5,-5.77,-7.01,-6.97,0,*52
1513108864.86,15592,7.0,72852.0,-5.77,-7.01,-6.89,0,*5E
1513108866.09,15593,7.0,72846.0,-5.79,-6.97,-6.89,0,*5F
1513108867.31,15594,7.06,72844.5,-5.79,-6.97,-6.89,0,*58
1513108868.53,15595,7.06,72846.5,-5.79,-7.01,-6.89,0,*57
1513108869.79,15596,7.06,72848.0,-5.77,-7.11,-6.97,0,*54
1513108871.01,15597,7.0,72844.8,-5.79,-6.97,-6.89,0,*5B
1513108872.24,15598,7.0,72842.3,-5.79,-6.97,-6.89,0,*54
1513108873.48,15599,7.0,72842.5,-5.79,-7.01,-6.97,0,*54
1513108874.71,15600,7.0,72844.3,-5.79,-7.01,-6.89,0,*58
1513108875.93,15601,7.06,72838.8,-5.79,-7.01,-6.89,0,*59
1513108877.15,15602,7.06,72836.8,-5.79,-7.01,-6.89,0,*5A
1513108878.38,15603,7.06,72840.3,-5.79,-7.11,-6.97,0,*55
1513108879.6,15604,7.06,72844.5,-5.79,-7.01,-6.89,0,*5C
1513108880.83,15605,7.06,72842.5,-5.79,-6.97,-6.89,0,*53
1513108882.05,15606,7.0,72842.3,-5.79,-6.97,-6.89,0,*50
1513108883.25,15607,7.06,72840.5,-5.79,-6.89,-6.89,0,*5E
1513108884.47,15608,7.0,72832.5,-5.79,-7.01,-6.89,0,*50
1513108885.72,15609,7.06,72838.0,-5.79,-6.97,-6.97,0,*50
1513108886.97,15610,7.06,72842.8,-5.79,-6.97,-6.97,0,*58
1513108888.22,15611,7.06,72840.0,-5.79,-6.97,-6.97,0,*59
1513108889.45,15612,7.06,72842.5,-5.79,-6.97,-6.89,0,*55
1513108890.7,15613,7.06,72840.3,-5.79,-7.01,-6.97,0,*55
1513108891.92,15614,7.06,72842.0,-5.79,-7.01,-6.89,0,*5D
1513108893.14,15615,7.0,72842.0,-5.79,-7.01,-6.89,0,*5C
1513108894.39,15616,7.06,72840.8,-5.77,-6.97,-6.89,0,*5F
1513108895.62,15617,7.06,72844.8,-5.79,-6.97,-6.89,0,*50
1513108896.84,15618,7.0,72842.5,-5.79,-6.97,-6.89,0,*5F
1513108898.04,15619,7.06,72846.3,-5.79,-6.89,-6.85,0,*5D
1513108899.24,15620,7.0,72840.3,-5.79,-6.89,-6.89,0,*5B
1513108900.43,15621,7.06,72846.5,-5.79,-6.89,-6.77,0,*5B
1513108901.68,15622,7.06,72846.8,-5.83,-7.01,-6.93,0,*56
1513108902.93,15623,7.06,72844.8,-5.83,-6.93,-6.93,0,*5D
1513108904.12,15624,7.0,72844.0,-5.79,-6.89,-6.89,0,*5F
1513108905.35,15625,7.0,72846.8,-5.79,-6.97,-6.89,0,*51
1513108906.55,15626,7.06,72846.5,-5.79,-6.89,-6.89,0,*5D
1513108907.75,15627,7.06,72848.0,-5.79,-6.89,-6.89,0,*5C
1513108908.94,15628,7.06,72846.3,-5.79,-6.89,-6.85,0,*5F
1513108910.14,15629,7.0,72840.5,-5.79,-6.89,-6.85,0,*5E
1513108911.37,15630,7.06,72850.0,-5.79,-6.97,-6.85,0,*59
1513108912.59,15631,7.06,72850.3,-5.79,-6.97,-6.85,0,*58
1513108913.84,15632,7.06,72848.0,-5.79,-6.97,-6.97,0,*58
1513108915.06,15633,7.0,72848.3,-5.83,-7.01,-6.89,0,*5D
1513108916.28,15634,7.06,72846.8,-5.83,-7.01,-6.89,0,*5A
1513108917.48,15635,7.0,72842.8,-5.79,-6.89,-6.77,0,*5E
1513108918.68,15636,7.0,72842.3,-5.79,-6.89,-6.77,0,*5D
1513108919.9,15637,7.0,72846.3,-5.77,-6.89,-6.77,0,*52
1513108921.1,15638,7.06,72848.3,-5.79,-6.85,-6.77,0,*5F
1513108922.32,15639,7.06,72850.3,-5.77,-6.89,-6.77,0,*5C
1513108923.51,15640,7.06,72850.5,-5.79,-6.85,-6.77,0,*50
1513108924.72,15641,7.0,72852.0,-5.79,-6.77,-6.77,0,*5C
1513108925.91,15642,7.06,72852.3,-5.79,-6.85,-6.77,0,*52
1513108927.11,15643,7.06,72852.8,-5.79,-6.85,-6.73,0,*57
1513108928.31,15644,7.06,72854.8,-5.79,-6.85,-6.77,0,*54
1513108929.51,15645,7.06,72852.3,-5.79,-6.77,-6.77,0,*58
1513108930.7,15646,7.06,72848.5,-5.79,-6.73,-6.73,0,*5B
1513108931.9,15647,7.06,72848.3,-5.79,-6.77,-6.73,0,*5E
1513108933.1,15648,7.06,72854.8,-5.79,-6.85,-6.77,0,*58
1513108934.3,15649,7.06,72852.8,-5.79,-6.85,-6.85,0,*54
1513108935.5,15650,7.0,72848.5,-5.79,-6.77,-6.73,0,*58
1513108936.7,15651,7.0,72850.3,-5.79,-6.77,-6.73,0,*59
1513108937.92,15652,7.06,72852.5,-5.79,-6.85,-6.63,0,*56
1513108939.14,15653,7.06,72852.3,-5.77,-6.73,-6.77,0,*55
1513108940.34,15654,7.0,72848.3,-5.79,-6.85,-6.73,0,*51
1513108941.54,15655,7.0,72850.3,-5.79,-6.85,-6.73,0,*50
1513108942.73,15656,7.0,72852.3,-5.79,-6.85,-6.85,0,*5A
1513108943.93,15657,7.06,72852.5,-5.79,-6.89,-6.85,0,*57
1513108945.13,15658,7.0,72848.3,-5.79,-6.89,-6.85,0,*58
1513108946.33,15659,7.06,72852.3,-5.79,-6.89,-6.85,0,*59
1513108947.55,15660,7.06,72850.3,-5.83,-6.93,-6.81,0,*59
1513108948.77,15661,7.06,72850.0,-5.83,-7.01,-6.89,0,*5A
1513108949.99,15662,7.06,72850.0,-5.83,-7.01,-6.89,0,*59
1513108951.24,15663,7.06,72848.0,-5.83,-7.05,-6.93,0,*57
1513108952.48,15664,7.0,72846.5,-5.83,-7.05,-6.93,0,*50
1513108953.7,15665,7.06,72850.8,-5.83,-7.05,-6.89,0,*5A
1513108954.95,15666,7.0,72846.0,-5.83,-6.93,-6.93,0,*5C
1513108956.19,15667,7.0,72846.8,-5.83,-7.01,-6.93,0,*57
1513108957.44,15668,7.06,72848.3,-5.83,-7.01,-7.01,0,*52
1513108958.66,15669,7.0,72844.0,-5.83,-6.93,-6.89,0,*58
1513108959.88,15670,7.06,72848.5,-5.83,-6.93,-6.89,0,*50
1513108961.1,15671,7.06,72844.3,-5.83,-7.01,-6.89,0,*5B
1513108962.3,15672,7.06,72848.0,-5.83,-6.89,-6.81,0,*51
1513108963.52,15673,7.0,72846.8,-5.83,-6.93,-6.77,0,*52
1513108964.75,15674,7.06,72848.3,-5.79,-7.01,-6.77,0,*5A
1513108965.97,15675,7.06,72846.5,-5.83,-6.93,-6.89,0,*55
1513108967.19,15676,7.06,72848.8,-5.83,-6.93,-6.89,0,*56
1513108968.41,15677,7.06,72846.3,-5.83,-7.01,-6.89,0,*5D
1513108969.64,15678,7.06,72844.3,-5.83,-6.93,-6.81,0,*50
1513108970.87,15679,7.0,72844.0,-5.83,-6.93,-6.81,0,*51
1513108972.07,15680,7.0,72842.0,-5.79,-6.89,-6.77,0,*50
1513108973.29,15681,7.06,72846.3,-5.83,-6.93,-6.89,0,*5E
1513108974.52,15682,7.06,72846.5,-5.83,-6.93,-6.81,0,*55
1513108975.71,15683,7.06,72848.3,-5.83,-6.89,-6.89,0,*57
1513108976.92,15684,7.06,72848.5,-5.83,-6.89,-6.81,0,*58
1513108978.15,15685,7.06,72846.8,-5.83,-6.93,-6.81,0,*52
1513108979.35,15686,7.06,72846.3,-5.83,-6.81,-6.81,0,*52
1513108980.58,15687,7.06,72844.3,-5.85,-6.81,-6.81,0,*55
1513108981.78,15688,7.0,72846.0,-5.83,-6.81,-6.81,0,*5C
1513108982.98,15689,7.06,72844.8,-5.83,-6.89,-6.89,0,*5D
1513108984.2,15690,7.06,72844.0,-5.83,-6.93,-6.89,0,*5E
1513108985.4,15691,7.06,72846.5,-5.79,-6.85,-6.85,0,*51
1513108986.64,15692,7.0,72846.8,-5.83,-7.01,-6.93,0,*5D
1513108987.89,15693,7.06,72846.8,-5.83,-6.93,-6.93,0,*56
1513108989.13,15694,7.0,72842.0,-5.83,-7.01,-6.93,0,*5B
1513108990.4,15695,7.0,72842.5,-5.85,-7.05,-7.01,0,*52
1513108991.6,15696,7.06,72842.5,-5.83,-7.15,-7.15,0,*53
1513108992.82,15697,7.0,72842.0,-5.85,-7.15,-7.15,0,*54
1513108994.06,15698,7.0,72836.5,-5.85,-7.15,-7.05,0,*5A
1513108995.29,15699,7.06,72836.8,-5.85,-7.15,-7.05,0,*5B
1513108996.54,15700,7.0,72828.5,-5.79,-7.01,-7.01,0,*58
1513108997.76,15701,7.06,72826.0,-5.83,-7.15,-7.05,0,*5D
1513108998.97,15702,7.06,72828.0,-5.83,-7.15,-7.05,0,*5E
1513109000.18,15703,7.0,72822.5,-5.83,-7.15,-7.05,0,*5F
1513109001.41,15704,7.0,72826.8,-5.83,-7.05,-7.15,0,*58
1513109002.6,15705,7.0,72830.0,-5.83,-7.15,-7.15,0,*58
1513109003.8,15706,7.0,72830.0,-5.83,-7.15,-7.15,0,*5B
1513109005.02,15707,7.06,72830.0,-5.85,-7.15,-7.15,0,*5C
1513109006.26,15708,7.06,72842.3,-5.85,-7.15,-7.05,0,*52
1513109007.46,15709,7.06,72840.5,-5.83,-7.15,-7.15,0,*54
1513109008.68,15710,7.06,72842.0,-5.85,-7.15,-7.15,0,*5A
1513109009.9,15711,7.0,72840.5,-5.85,-7.15,-7.15,0,*5B
1513109011.12,15712,7.0,72842.0,-5.83,-7.15,-7.01,0,*5B
1513109012.39,15713,7.0,72842.3,-5.85,-7.05,-7.01,0,*5D
1513109013.63,15714,7.06,72846.8,-5.83,-7.05,-7.05,0,*58
1513109014.87,15715,7.0,72838.8,-5.85,-7.15,-7.05,0,*5E
1513109016.08,15716,7.0,72840.0,-5.83,-7.15,-7.05,0,*5B
1513109017.32,15717,7.06,72846.5,-5.85,-7.05,-7.15,0,*5C
1513109018.54,15718,7.06,72840.8,-5.83,-7.15,-7.05,0,*55
1513109019.78,15719,7.06,72838.5,-5.85,-7.15,-7.05,0,*52
1513109021.01,15720,7.06,72836.8,-5.83,-7.05,-7.05,0,*5F
1513109022.25,15721,7.06,72842.5,-5.85,-7.15,-7.05,0,*59
1513109023.49,15722,7.06,72842.0,-5.85,-7.15,-7.05,0,*5A
1513109024.7,15723,7.0,72844.8,-5.83,-7.15,-7.05,0,*5D
1513109025.97,15724,7.06,72848.3,-5.85,-7.05,-7.05,0,*5D
1513109027.21,15725,7.0,72848.8,-5.83,-7.05,-7.01,0,*5E
1513109028.45,15726,7.06,72854.0,-5.83,-7.05,-7.05,0,*59
1513109029.69,15727,7.06,72852.5,-5.85,-7.15,-7.01,0,*5B
1513109030.93,15728,7.06,72852.3,-5.85,-7.15,-7.05,0,*50
1513109032.19,15729,7.06,72854.8,-5.85,-7.05,-7.01,0,*54
1513109033.44,15730,7.06,72856.8,-5.85,-7.15,-7.01,0,*5D
1513109034.68,15731,7.0,72854.3,-5.85,-7.15,-7.05,0,*58
1513109035.92,15732,7.0,72854.3,-5.85,-7.19,-7.05,0,*57
1513109037.16,15733,7.06,72856.0,-5.85,-7.27,-7.19,0,*56
1513109038.39,15734,7.0,72852.8,-5.85,-7.19,-7.15,0,*50
1513109039.63,15735,7.06,72854.0,-5.85,-7.05,-7.15,0,*5C
1513109040.85,15736,7.0,72854.3,-5.85,-7.15,-7.15,0,*5E
1513109042.08,15737,7.0,72850.8,-5.85,-7.19,-7.15,0,*53
1513109043.34,15738,7.06,72854.8,-5.85,-7.05,-7.05,0,*50
1513109044.57,15739,7.06,72850.0,-5.85,-7.15,-7.05,0,*50
1513109045.82,15740,7.0,72850.3,-5.85,-7.15,-7.01,0,*5A
1513109047.09,15741,7.06,72854.3,-5.85,-7.05,-6.93,0,*50
1513109048.35,15742,7.06,72852.8,-5.85,-7.01,-6.93,0,*57
1513109049.62,15743,7.0,72850.8,-5.85,-7.05,-7.01,0,*58
1513109050.86,15744,7.06,72854.8,-5.83,-7.05,-7.01,0,*59
1513109052.11,15745,7.0,72850.3,-5.85,-7.15,-7.01,0,*5F
1513109053.35,15746,7.06,72850.8,-5.85,-7.05,-7.15,0,*58
1513109054.57,15747,7.06,72848.5,-5.85,-7.15,-7.15,0,*58
1513109055.8,15748,7.06,72852.0,-5.85,-7.19,-7.15,0,*5B
1513109057.04,15749,7.06,72854.8,-5.85,-7.15,-7.05,0,*57
1513109058.28,15750,7.06,72854.8,-5.85,-7.19,-7.05,0,*53
1513109059.5,15751,7.06,72856.8,-5.85,-7.15,-7.15,0,*5F
1513109060.74,15752,7.06,72856.5,-5.85,-7.15,-7.05,0,*5D
1513109061.98,15753,7.0,72848.5,-5.85,-7.19,-7.05,0,*50
1513109063.19,15754,7.06,72854.5,-5.87,-7.19,-7.11,0,*50
1513109064.42,15755,7.0,72850.8,-5.89,-7.19,-7.11,0,*5F
1513109065.62,15756,7.06,72852.5,-5.87,-7.23,-7.19,0,*53
1513109066.85,15757,7.06,72850.0,-5.89,-7.19,-7.11,0,*5D
1513109068.05,15758,7.06,72854.3,-5.87,-7.19,-7.11,0,*5C
1513109069.29,15759,7.06,72854.5,-5.89,-7.19,-7.11,0,*53
1513109070.49,15760,7.0,72848.5,-5.87,-7.23,-7.11,0,*5E
1513109071.69,15761,7.0,72848.8,-5.87,-7.23,-7.11,0,*5F
1513109072.9,15762,7.0,72850.3,-5.87,-7.19,-7.11,0,*55
1513109074.12,15763,7.06,72850.8,-5.87,-7.11,-7.05,0,*59
1513109075.33,15764,7.0,72848.3,-5.87,-7.23,-7.11,0,*5A
1513109076.55,15765,7.06,72852.3,-5.89,-7.23,-7.11,0,*55
1513109077.76,15766,7.0,72850.8,-5.87,-7.19,-7.11,0,*51
1513109078.99,15767,7.0,72848.3,-5.87,-7.11,-6.97,0,*57
1513109080.21,15768,7.06,72850.8,-5.87,-7.31,-7.19,0,*5D
1513109081.43,15769,7.06,72850.0,-5.89,-7.23,-7.19,0,*51
1513109082.68,15770,7.06,72850.8,-5.89,-7.23,-7.05,0,*54
1513109083.92,15771,7.06,72850.3,-5.89,-7.23,-7.05,0,*55
1513109085.16,15772,7.0,72848.8,-5.89,-7.19,-7.05,0,*5F
1513109086.37,15773,7.0,72846.8,-5.87,-7.19,-7.11,0,*55
1513109087.57,15774,7.0,72850.0,-5.87,-7.19,-7.11,0,*52
1513109088.82,15775,7.06,72848.0,-5.89,-7.11,-6.97,0,*5A
1513109090.05,15776,7.06,72848.8,-5.87,-7.11,-6.97,0,*57
1513109091.31,15777,7.0,72848.5,-5.89,-7.05,-7.05,0,*57
1513109092.56,15778,7.0,72850.3,-5.89,-7.11,-7.05,0,*5D
1513109093.79,15779,7.06,72850.0,-5.87,-7.11,-6.97,0,*58
1513109095.04,15780,7.06,72850.0,-5.87,-6.97,-6.97,0,*51
1513109096.31,15781,7.0,72844.5,-5.89,-6.97,-6.93,0,*5A
1513109097.56,15782,7.06,72846.3,-5.89,-7.05,-6.85,0,*54
1513109098.8,15783,7.06,72846.8,-5.89,-6.97,-6.85,0,*5F
1513109100.06,15784,7.0,72840.8,-5.89,-7.05,-6.81,0,*56
1513109101.31,15785,7.06,72844.0,-5.89,-6.93,-6.85,0,*5D
1513109102.55,15786,7.06,72844.8,-5.89,-6.97,-6.85,0,*5A
1513109103.8,15787,7.0,72840.8,-5.89,-6.93,-6.85,0,*5F
1513109105.05,15788,7.0,72840.5,-5.89,-6.93,-6.85,0,*50
1513109106.3,15789,7.0,72838.3,-5.89,-6.93,-6.85,0,*51
1513109107.55,15790,7.06,72842.3,-5.89,-6.97,-6.85,0,*5D
1513109108.8,15791,7.0,72838.0,-5.89,-6.97,-6.85,0,*5C
1513109110.03,15792,7.06,72840.5,-5.89,-6.85,-6.81,0,*58
1513109111.28,15793,7.06,72842.3,-5.89,-6.93,-6.81,0,*5E
1513109112.54,15794,7.0,72842.3,-5.89,-6.97,-6.81,0,*5D
1513109113.76,15795,7.06,72840.0,-5.89,-6.85,-6.81,0,*5F
1513109115.02,15796,7.06,72844.8,-5.89,-6.93,-6.81,0,*5B
1513109116.27,15797,7.06,72846.0,-5.89,-6.93,-6.85,0,*5E
1513109117.52,15798,7.06,72846.0,-5.89,-6.93,-6.85,0,*51
1513109118.77,15799,7.06,72846.0,-5.89,-6.93,-6.85,0,*50
1513109120.01,15800,7.06,72844.8,-5.89,-6.93,-6.85,0,*5F
1513109121.29,15801,7.06,72844.0,-5.89,-6.93,-6.93,0,*59
1513109122.56,15802,7.0,72844.3,-5.89,-6.97,-7.05,0,*50
1513109123.83,15803,7.0,72842.0,-5.89,-7.05,-6.97,0,*51
1513109125.09,15804,7.0,72840.8,-5.89,-6.97,-7.05,0,*56
1513109126.34,15805,7.0,72842.5,-5.91,-6.97,-7.01,0,*5A
1513109127.59,15806,7.0,72842.3,-5.91,-7.01,-6.97,0,*59
1513109128.86,15807,7.06,72844.0,-5.89,-6.97,-6.93,0,*5B
1513109130.14,15808,7.06,72842.8,-5.89,-6.97,-6.93,0,*54
1513109131.39,15809,7.06,72840.0,-5.89,-6.97,-6.85,0,*52
1513109132.66,15810,7.0,72840.8,-5.89,-6.93,-6.93,0,*59
1513109133.93,15811,7.06,72842.5,-5.89,-6.93,-6.97,0,*5C
1513109135.16,15812,7.06,72842.0,-5.87,-6.93,-6.85,0,*52
1513109136.41,15813,7.06,72844.0,-5.91,-7.01,-6.97,0,*5D
1513109137.63,15814,7.06,72850.0,-5.91,-6.97,-6.89,0,*5B
1513109138.91,15815,7.06,72850.0,-5.89,-6.97,-6.93,0,*58
1513109140.13,15816,7.06,72850.8,-5.91,-7.11,-6.97,0,*59
1513109141.41,15817,7.0,72848.0,-5.89,-6.97,-6.93,0,*5A
1513109142.68,15818,7.06,72850.0,-5.89,-6.93,-6.93,0,*51
1513109143.91,15819,7.0,72844.0,-5.89,-6.85,-6.81,0,*54
1513109145.16,15820,7.0,72846.5,-5.89,-6.93,-6.85,0,*5D
1513109146.43,15821,7.06,72848.8,-5.89,-6.93,-6.93,0,*5B
1513109147.66,15822,7.0,72844.8,-5.87,-6.93,-6.85,0,*51
1513109148.91,15823,7.06,72850.3,-5.89,-6.93,-6.85,0,*5E
1513109150.13,15824,7.06,72850.8,-5.89,-6.85,-6.85,0,*5E
1513109151.35,15825,7.06,72846.5,-5.89,-6.81,-6.85,0,*5B
1513109152.58,15826,7.0,72840.5,-5.89,-6.85,-6.81,0,*58
1513109153.81,15827,7.06,72844.0,-5.89,-6.85,-6.81,0,*59
1513109155.03,15828,7.06,72844.8,-5.89,-6.85,-6.81,0,*56
1513109156.26,15829,7.06,72846.3,-5.91,-6.97,-6.85,0,*59
1513109157.49,15830,7.06,72850.3,-5.89,-6.81,-6.81,0,*5B
1513109158.69,15831,7.06,72850.5,-5.91,-6.85,-6.89,0,*5F
1513109159.94,15832,7.0,72850.3,-5.89,-6.93,-6.85,0,*5E
1513109161.16,15833,7.06,72846.8,-5.89,-6.85,-6.85,0,*58
1513109162.43,15834,7.0,72844.0,-5.89,-6.97,-6.93,0,*5B
1513109163.68,15835,7.06,72846.8,-5.89,-6.97,-6.85,0,*5D
1513109164.93,15836,7.0,72842.0,-5.91,-7.01,-6.97,0,*5A
1513109166.12,15837,7.0,72842.3,-5.91,-6.89,-6.89,0,*55
1513109167.35,15838,7.06,72848.5,-5.91,-6.97,-6.89,0,*55
1513109168.57,15839,7.0,72846.5,-5.91,-6.97,-6.89,0,*54
1513109169.82,15840,7.0,72844.0,-5.89,-7.05,-6.85,0,*55
1513109171.09,15841,7.06,72846.3,-5.89,-6.97,-6.93,0,*59
1513109172.36,15842,7.06,72854.3,-5.89,-6.97,-7.05,0,*54
1513109173.63,15843,7.0,72854.0,-5.89,-6.97,-6.93,0,*5B
1513109174.9,15844,7.06,72852.0,-5.89,-7.05,-7.05,0,*58
1513109176.16,15845,7.0,72846.5,-5.89,-7.05,-7.05,0,*59
1513109177.41,15846,7.0,72848.0,-5.89,-7.11,-7.05,0,*5F
1513109178.61,15847,7.0,72844.5,-5.91,-7.15,-7.11,0,*56
1513109179.82,15848,7.0,72844.8,-5.91,-7.23,-7.11,0,*5C
1513109181.02,15849,7.06,72854.0,-5.91,-7.15,-7.11,0,*58
1513109182.24,15850,7.06,72848.3,-5.91,-7.15,-7.01,0,*51
1513109183.45,15851,7.06,72852.5,-5.91,-7.15,-7.11,0,*51
1513109184.65,15852,7.0,72852.0,-5.91,-7.15,-7.11,0,*52
1513109185.88,15853,7.0,72854.3,-5.91,-7.15,-7.01,0,*52
1513109187.12,15854,7.06,72856.0,-5.91,-7.01,-7.01,0,*50
1513109188.37,15855,7.06,72858.8,-5.91,-7.01,-7.01,0,*51
1513109189.6,15856,7.06,72854.8,-5.91,-7.11,-6.97,0,*5D
1513109190.85,15857,7.06,72848.5,-5.91,-7.01,-6.97,0,*5D
1513109192.09,15858,7.0,72846.3,-5.91,-7.01,-6.97,0,*52
1513109193.3,15859,7.0,72850.0,-5.91,-7.11,-6.89,0,*5D
1513109194.52,15860,7.0,72850.8,-5.91,-7.11,-7.01,0,*56
1513109195.77,15861,7.06,72852.3,-5.91,-7.01,-7.01,0,*56
1513109197.02,15862,7.0,72852.8,-5.91,-7.01,-6.97,0,*5B
1513109198.27,15863,7.06,72854.0,-5.93,-7.15,-7.01,0,*53
1513109199.54,15864,7.0,72850.3,-5.89,-7.05,-6.93,0,*54
1513109200.76,15865,7.0,72846.5,-5.91,-7.01,-6.89,0,*53
1513109201.98,15866,7.0,72848.3,-5.91,-7.01,-6.89,0,*50
1513109203.26,15867,7.0,72854.0,-5.93,-7.01,-6.93,0,*58
1513109204.51,15868,7.0,72854.8,-5.91,-7.01,-7.01,0,*5F
1513109205.75,15869,7.06,72858.5,-5.91,-7.01,-7.01,0,*5E
1513109206.96,15870,7.0,72854.8,-5.91,-7.15,-7.11,0,*52
1513109208.16,15871,7.0,72854.0,-5.91,-7.23,-7.15,0,*52
1513109209.36,15872,7.06,72856.3,-5.91,-7.11,-7.15,0,*50
1513109210.61,15873,7.06,72854.5,-5.91,-7.01,-7.01,0,*55
1513109211.86,15874,7.06,72854.8,-5.91,-7.01,-7.01,0,*52
1513109213.06,15875,7.0,72850.5,-5.91,-7.11,-7.11,0,*53
1513109214.31,15876,7.0,72852.3,-5.93,-7.15,-7.05,0,*53
1513109215.51,15877,7.0,72850.8,-5.91,-7.15,-7.11,0,*55
1513109216.74,15878,7.0,72854.5,-5.91,-7.27,-7.15,0,*5F
1513109217.94,15879,7.06,72852.0,-5.91,-7.15,-7.11,0,*5B
1513109219.19,15880,7.0,72854.3,-5.93,-7.27,-7.19,0,*56
1513109220.41,15881,7.06,72852.3,-5.91,-7.15,-7.01,0,*5D
1513109221.64,15882,7.0,72854.5,-5.93,-7.19,-7.15,0,*55
1513109222.85,15883,7.0,72856.5,-5.91,-7.19,-7.15,0,*56
1513109224.1,15884,7.0,72854.8,-5.93,-7.27,-7.15,0,*5E
1513109225.33,15885,7.06,72860.5,-5.93,-7.19,-7.15,0,*52
1513109226.54,15886,7.06,72860.3,-5.91,-7.11,-7.11,0,*5F
1513109227.79,15887,7.0,72854.5,-5.93,-7.27,-7.19,0,*51
1513109229.06,15888,7.0,72850.0,-5.93,-7.27,-7.27,0,*53
1513109230.31,15889,7.0,72852.0,-5.93,-7.27,-7.19,0,*5F
1513109231.58,15890,7.06,72858.3,-5.93,-7.27,-7.27,0,*5A
1513109232.8,15891,7.06,72858.8,-5.91,-7.27,-7.15,0,*58
1513109234.01,15892,7.06,72852.8,-5.91,-7.23,-7.23,0,*5A
1513109235.21,15893,7.0,72858.5,-5.91,-7.15,-7.23,0,*5E
1513109236.46,15894,7.0,72854.0,-5.93,-7.27,-7.19,0,*53
1513109237.67,15895,7.0,72848.8,-5.91,-7.23,-7.23,0,*5D
1513109238.94,15896,7.06,72854.3,-5.93,-7.31,-7.31,0,*5C
1513109240.19,15897,7.06,72858.8,-5.93,-7.27,-7.15,0,*5C
1513109241.46,15898,7.06,72858.3,-5.93,-7.31,-7.27,0,*55
1513109242.71,15899,7.0,72856.5,-5.93,-7.27,-7.19,0,*5E
1513109243.94,15900,7.0,72852.5,-5.93,-7.19,-7.19,0,*52
1513109245.15,15901,7.0,72858.5,-5.95,-7.19,-7.19,0,*55
1513109246.38,15902,7.0,72854.5,-5.93,-7.19,-7.19,0,*50
1513109247.63,15903,7.0,72854.8,-5.93,-7.05,-7.15,0,*50
1513109248.9,15904,7.0,72858.3,-5.93,-7.27,-7.27,0,*56
1513109250.15,15905,7.0,72856.0,-5.93,-7.39,-7.19,0,*55
1513109251.4,15906,7.06,72856.8,-5.93,-7.31,-7.19,0,*5E
1513109252.62,15907,7.06,72862.5,-5.91,-7.27,-7.11,0,*52
1513109253.89,15908,7.06,72860.5,-5.93,-7.31,-7.05,0,*5D
1513109255.14,15909,7.0,72858.5,-5.93,-7.27,-7.15,0,*5A
1513109256.36,15910,7.0,72854.5,-5.91,-7.27,-7.11,0,*54
1513109257.63,15911,7.0,72858.8,-5.93,-7.31,-7.05,0,*55
1513109258.83,15912,7.0,72856.5,-5.91,-7.23,-7.11,0,*52
1513109260.08,15913,7.06,72856.0,-5.93,-7.31,-7.19,0,*5A
1513109261.31,15914,7.0,72856.0,-5.91,-7.27,-7.11,0,*50
1513109262.55,15915,7.0,72854.8,-5.93,-7.39,-7.15,0,*58
1513109263.76,15916,7.0,72854.0,-5.91,-7.23,-7.11,0,*56
1513109265.02,15917,7.0,72852.5,-5.93,-7.27,-7.05,0,*54
1513109266.28,15918,7.0,72854.3,-5.93,-7.19,-7.01,0,*52
1513109267.52,15919,7.0,72852.8,-5.93,-7.19,-7.05,0,*57
1513109268.79,15920,7.06,72856.0,-5.93,-7.27,-7.05,0,*50
1513109270.05,15921,7.0,72852.5,-5.93,-7.27,-7.05,0,*51
1513109271.3,15922,7.0,72852.0,-5.93,-7.27,-7.15,0,*53
1513109272.53,15923,7.0,72852.3,-5.93,-7.19,-7.15,0,*5F
1513109273.8,15924,7.0,72852.5,-5.93,-7.27,-7.05,0,*54
1513109275.07,15925,7.0,72852.5,-5.93,-7.27,-7.05,0,*55
1513109276.31,15926,7.0,72854.8,-5.93,-7.27,-7.15,0,*57
1513109277.56,15927,7.0,72852.0,-5.93,-7.27,-7.15,0,*56
1513109278.81,15928,7.0,72852.3,-5.95,-7.39,-7.27,0,*51
1513109280.03,15929,7.0,72852.0,-5.95,-7.53,-7.39,0,*53
1513109281.29,15930,7.06,72854.5,-5.95,-7.43,-7.31,0,*52
1513109282.51,15931,7.06,72856.0,-5.97,-7.31,-7.19,0,*5E
1513109283.74,15932,7.0,72848.3,-5.93,-7.19,-7.15,0,*5F
1513109284.98,15933,7.06,72854.3,-5.93,-7.19,-7.05,0,*5F
1513109286.21,15934,7.0,72852.8,-5.95,-7.27,-7.15,0,*52
1513109287.43,15935,7.0,72854.0,-5.95,-7.27,-7.15,0,*53
1513109288.66,15936,7.06,72854.0,-5.95,-7.15,-7.05,0,*50
1513109289.9,15937,7.0,72850.3,-5.95,-7.05,-7.01,0,*54
1513109291.15,15938,7.06,72856.0,-5.95,-7.05,-7.01,0,*5B
1513109292.4,15939,7.0,72854.5,-5.95,-7.05,-7.01,0,*5A
1513109293.66,15940,7.0,72852.0,-5.95,-7.01,-6.93,0,*5A
1513109294.9,15941,7.0,72852.5,-5.95,-7.05,-6.93,0,*5F
1513109296.16,15942,7.06,72858.3,-5.95,-6.93,-7.01,0,*58
1513109297.41,15943,7.06,72856.0,-5.95,-7.01,-6.93,0,*59
1513109298.63,15944,7.0,72852.5,-5.97,-6.93,-6.89,0,*5D
1513109299.85,15945,7.06,72858.3,-5.97,-7.01,-6.89,0,*56
1513109301.07,15946,7.06,72856.8,-5.95,-7.01,-6.89,0,*57
1513109302.32,15947,7.0,72852.8,-5.95,-7.01,-7.01,0,*57
1513109303.57,15948,7.0,72852.8,-5.95,-7.05,-7.01,0,*5C
1513109304.79,15949,7.0,72852.3,-5.95,-7.15,-7.05,0,*58
1513109306.02,15950,7.06,72854.3,-5.95,-7.27,-7.15,0,*50
1513109307.24,15951,7.06,72852.3,-5.97,-7.27,-7.19,0,*5F
1513109308.45,15952,7.06,72852.5,-5.95,-7.19,-7.15,0,*5F
1513109309.64,15953,7.06,72852.5,-5.97,-7.19,-7.19,0,*50
1513109310.89,15954,7.0,72848.3,-5.97,-7.27,-7.27,0,*57
1513109312.11,15955,7.0,72850.3,-5.95,-7.27,-7.19,0,*59
1513109313.33,15956,7.06,72848.8,-5.97,-7.39,-7.19,0,*57
1513109314.54,15957,7.0,72846.5,-5.97,-7.27,-7.19,0,*59
1513109315.77,15958,7.0,72846.5,-5.95,-7.19,-7.05,0,*54
1513109316.96,15959,7.0,72846.8,-5.97,-7.15,-7.15,0,*5A
1513109318.2,15960,7.0,72842.0,-5.97,-7.05,-7.01,0,*54
1513109319.45,15961,7.0,72840.5,-5.95,-7.05,-7.01,0,*57
1513109320.69,15962,7.0,72840.0,-5.97,-7.05,-7.05,0,*52
1513109321.91,15963,7.0,72840.3,-5.95,-7.15,-7.01,0,*54
1513109323.14,15964,7.0,72844.8,-5.95,-7.15,-7.01,0,*53